Location: Unspecified
(0.0000°N, 0.0000°E)
Time: 18:14:53
(UTC+00:00)

STARLINK 1042 - Pass Details

Date: 21 January 2020
Orbit: 548 x 551 km, 53.0° (Epoch: 17 January)

Event Time Altitude Azimuth Distance (km) Brightness Sun altitude
Rises 04:50:57 0° 204° (SSW) 2,713 7.1 -18.8°
Reaches altitude 10° 04:53:15 10° 198° (SSW) 1,817 6.3 -18.2°
Maximum altitude 04:57:13 46° 124° (SE) 737 4.7 -17.3°
Drops below altitude 10° 05:01:10 10° 50° (NE) 1,809 6.6 -16.4°
Sets 05:03:27 0° 44° (NE) 2,699 7.5 -15.9°
